Weather History for Saint Simons Island, GA

Change the Weather History Date:

Monday, May 26, 2014

  Actual Average Record
Temperature  
Mean Temperature 77 °F 77 °F  
Max Temperature 82 °F 84 °F 100 °F (1953)
Min Temperature 71 °F 70 °F 55 °F (1979)
Degree Days  
Heating Degree Days 0 0  
Month to date heating degree days 1 2  
Since 1 July heating degree days 1494 1486  
Cooling Degree Days 12 12  
Month to date cooling degree days 238 235  
Year to date cooling degree days 376 378  
Growing Degree Days 26 (Base 50)    
Moisture  
Dew Point 70 °F    
Average Humidity 82    
Maximum Humidity 90    
Minimum Humidity 74    
Precipitation  
Precipitation 0.00 in 0.07 in 1.44 in (1981)
Month to date precipitation 1.47 1.41  
Year to date precipitation 18.41 14.47  
Snow  
Snow 0.00 in - 0.00 in ()
Month to date snowfall 0.0  
Since 1 July snowfall T  
Snow Depth 0.00 in    
Sea Level Pressure  
Sea Level Pressure 30.19 in    
Wind  
Wind Speed 8 mph (SE)    
Max Wind Speed 15 mph    
Max Gust Speed 21 mph    
Visibility 10 miles    
Events Thunderstorm    
T = Trace of Precipitation, MM = Missing Value Source: NWS Daily Summary

Daily Weather History Graph

Daily Weather History Graph

Search for Another Location

Airport:

Trip Planner

Search our weather history database for the weather conditions in past years. The results will help you decide how hot, cold, wet, or windy it might be!

Date:

Astronomy

May. 26, 2014 Rise Set
Actual Time 6:24 AM EDT 8:21 PM EDT
Civil Twilight 5:57 AM EDT 8:48 PM EDT
Nautical Twilight 5:24 AM EDT 9:21 PM EDT
Astronomical Twilight 4:49 AM EDT 9:56 PM EDT
Moon 4:55 AM EDT (5/26) 6:30 PM EDT (5/26)
Length of Visible Light 14h 51m
Length of Day
13h 57m
Waning Crescent, 5% of the Moon is Illuminated
May 26
Waning Crescent
May 28
New
Jun 5
First Quarter
Jun 13
Full
Jun 19
Last Quarter

Hourly Weather History & Observations

Time (EDT) Temp. Heat Index Dew Point Humidity Pressure Visibility Wind Dir Wind Speed Gust Speed Precip Events Conditions
12:53 AM 75.0 °F - 69.1 °F 82% 30.17 in 10.0 mi ESE 6.9 mph - N/A   Clear
1:53 AM 75.0 °F - 69.1 °F 82% 30.17 in 10.0 mi ESE 9.2 mph - N/A   Clear
2:53 AM 75.0 °F - 69.1 °F 82% 30.17 in 10.0 mi NNE 4.6 mph - N/A   Clear
3:53 AM 73.0 °F - 69.1 °F 87% 30.17 in 10.0 mi NNW 5.8 mph - N/A   Mostly Cloudy
4:53 AM 72.0 °F - 68.0 °F 87% 30.16 in 10.0 mi NNE 4.6 mph - N/A   Mostly Cloudy
5:53 AM 71.1 °F - 68.0 °F 90% 30.16 in 10.0 mi Calm Calm - N/A   Partly Cloudy
6:53 AM 75.0 °F - 70.0 °F 84% 30.16 in 10.0 mi SE 9.2 mph - N/A   Clear
7:53 AM 75.0 °F - 71.1 °F 87% 30.19 in 10.0 mi SE 6.9 mph - N/A   Scattered Clouds
8:40 AM 77.0 °F - 70.0 °F 79% 30.21 in 10.0 mi SE 6.9 mph - N/A   Mostly Cloudy
8:53 AM 77.0 °F - 69.1 °F 76% 30.21 in 10.0 mi SSE 5.8 mph - N/A   Overcast
9:13 AM 78.1 °F - 70.0 °F 76% 30.22 in 10.0 mi SE 6.9 mph - N/A   Scattered Clouds
9:53 AM 78.1 °F - 71.1 °F 79% 30.23 in 10.0 mi SE 6.9 mph - N/A   Clear
10:53 AM 79.0 °F - 72.0 °F 79% 30.24 in 10.0 mi ESE 9.2 mph - N/A   Clear
11:51 AM 80.6 °F 84.6 °F 71.6 °F 74% 30.23 in 10.0 mi ESE 11.5 mph - N/A Thunderstorm Clear
11:53 AM 80.1 °F 83.6 °F 71.1 °F 74% 30.23 in 10.0 mi SE 11.5 mph - N/A Thunderstorm Clear
12:53 PM 78.1 °F - 71.1 °F 79% 30.22 in 10.0 mi SE 11.5 mph - N/A Thunderstorm Mostly Cloudy
1:06 PM 77.0 °F - 71.1 °F 82% 30.22 in 10.0 mi SSE 5.8 mph - N/A   Overcast
1:32 PM 77.0 °F - 71.1 °F 82% 30.22 in 10.0 mi SE 11.5 mph - N/A Thunderstorm Scattered Clouds
1:53 PM 77.0 °F - 71.1 °F 82% 30.22 in 10.0 mi SE 8.1 mph - N/A   Mostly Cloudy
2:08 PM 75.9 °F - 72.0 °F 87% 30.22 in 10.0 mi SSE 6.9 mph - N/A Thunderstorm Mostly Cloudy
2:23 PM 75.9 °F - 72.0 °F 87% 30.23 in 10.0 mi SE 5.8 mph - N/A   Mostly Cloudy
2:53 PM 75.9 °F - 72.0 °F 87% 30.22 in 8.0 mi SE 6.9 mph - N/A   Overcast
3:53 PM 79.0 °F - 72.0 °F 79% 30.20 in 10.0 mi ESE 9.2 mph - N/A   Partly Cloudy
4:53 PM 79.0 °F - 70.0 °F 74% 30.17 in 10.0 mi SE 11.5 mph - N/A   Clear
5:53 PM 79.0 °F - 69.1 °F 72% 30.14 in 10.0 mi SE 12.7 mph - N/A   Clear
6:53 PM 78.8 °F - 69.8 °F 74% 30.15 in 10.0 mi SE 11.5 mph - N/A   Clear
7:00 PM 78.1 °F - 69.1 °F 74% 30.15 in 10.0 mi SE 10.4 mph - N/A   Partly Cloudy
7:53 PM 75.9 °F - 68.0 °F 76% 30.17 in 10.0 mi SSE 11.5 mph - N/A   Clear
8:53 PM 75.9 °F - 68.0 °F 76% 30.18 in 10.0 mi SSE 8.1 mph - N/A   Clear
9:53 PM 75.0 °F - 68.0 °F 79% 30.19 in 10.0 mi South 6.9 mph - N/A   Clear
10:53 PM 75.0 °F - 68.0 °F 79% 30.20 in 10.0 mi SSE 4.6 mph - N/A   Clear
11:53 PM 75.0 °F - 68.0 °F 79% 30.19 in 10.0 mi South 6.9 mph - N/A   Clear